This demonstration page uses our WeatherBlox Daily Observations layout. Learn more.

Left ArrowRight Arrow

41.86663, -103.66717

Hourly Observations for February 23, 2016

Temp ( °F °C ) Dew Point ( °F °C ) Humidity (%) Winds ( mph kmh ) Pressure ( in mb ) Visibility ( mi km ) Precip ( " mm )
12:53 am 00:53 Clear 28 -2.2 19 -7.2 69 69 NNW 6 9 30.10 1019 10 16 N/A
1:53 am 01:53 Clear 27 -2.8 20 -6.7 75 75 WNW 8 13 30.14 1021 10 16 N/A
2:53 am 02:53 Clear 25 -3.9 19 -7.2 78 78 NW 7 11 30.16 1022 10 16 N/A
3:53 am 03:53 Clear 24 -4.4 19 -7.2 81 81 WNW 9 15 30.19 1023 10 16 N/A
4:53 am 04:53 Clear 24 -4.4 18 -7.8 77 77 WNW 9 15 30.23 1024 10 16 N/A
5:53 am 05:53 Clear 23 -5 17 -8.3 78 78 NW 8 13 30.27 1025 10 16 N/A
6:53 am 06:53 Sunny 22 -5.6 17 -8.3 82 82 WNW 8 13 30.29 1026 10 16 N/A
7:53 am 07:53 Sunny 26 -3.3 19 -7.2 75 75 WNW 8 13 30.29 1026 10 16 N/A
8:53 am 08:53 undefined 31 -0.6 18 -7.8 59 59 WNW 15 24 30.28 1026 10 16 N/A
9:53 am 09:53 Sunny 38 3.3 14 -10 37 37 NNW 25 41 30.28 1026 10 16 N/A
10:53 am 10:53 Sunny 41 5 12 -11.1 30 30 NNW 18 30 30.28 1025 10 16 N/A
11:53 am 11:53 Sunny 44 6.7 9 -12.8 24 24 NNW 25 41 30.25 1024 10 16 N/A
12:53 pm 12:53 Sunny 46 7.8 10 -12.2 23 23 N 21 33 30.23 1024 10 16 N/A
1:53 pm 13:53 Sunny 47 8.3 6 -14.4 19 19 NNW 23 37 30.21 1023 10 16 N/A
2:53 pm 14:53 Sunny 47 8.3 10 -12.2 22 22 NNW 18 30 30.21 1023 10 16 N/A
3:53 pm 15:53 Sunny 47 8.3 9 -12.8 21 21 NNW 20 31 30.21 1023 10 16 N/A
4:53 pm 16:53 Sunny 45 7.2 12 -11.1 26 26 NNW 20 31 30.22 1024 10 16 N/A
5:53 pm 17:53 Clear 37 2.8 13 -10.6 37 37 NNW 10 17 30.26 1025 10 16 N/A
6:53 pm 18:53 Clear 34 1.1 13 -10.6 42 42 WNW 6 9 30.28 1026 10 16 N/A
7:53 pm 19:53 Clear 30 -1.1 13 -10.6 49 49 NW 5 7 30.28 1026 10 16 N/A
8:53 pm 20:53 Clear 31 -0.6 13 -10.6 47 47 N N/A 30.28 1025 10 16 N/A
9:53 pm 21:53 Clear 28 -2.2 13 -10.6 53 53 WNW 7 11 30.26 1025 10 16 N/A
10:53 pm 22:53 Clear 23 -5 13 -10.6 65 65 NW 8 13 30.26 1025 10 16 N/A
11:53 pm 23:53 Clear 23 -5 13 -10.6 65 65 NNW 8 13 30.24 1024 10 16 N/A

Powered by AerisWeather